Location: Doussal
(55.6167°N, 116.8333°W)
Time: 04:29:08
(UTC+00:00)

METEOR M2 - Pass Details

Date: 11 December 2023
Orbit: 818 x 826 km, 98.4° (Epoch: 25 February)

Event Time Altitude Azimuth Distance (km) Brightness Sun altitude
Rises 13:01:23 0° 20° (NNE) 3,374 ? -24.3°
Reaches altitude 10° 13:03:58 10° 29° (NNE) 2,435 ? -23.9°
Maximum altitude 13:08:53 35° 95° (E) 1,312 ? -23.2°
Drops below altitude 10° 13:13:45 10° 160° (SSE) 2,415 ? -22.5°
Sets 13:16:17 0° 169° (S) 3,341 ? -22.2°
